This demonstration page uses our WeatherBlox Daily Observations layout. Learn more.

Left ArrowRight Arrow

Hourly Observations for October 29, 2019

Temp ( °F °C ) Dew Point ( °F °C ) Humidity (%) Winds ( mph kmh ) Pressure ( in mb ) Visibility ( mi km ) Precip ( " mm )
12:53 am 00:53 Clear 45 7.2 36 2.2 71 71 ENE 8 13 29.97 1015 10 16 0.00 0.00
1:53 am 01:53 Mostly Clear 43 6.1 36 2.2 76 76 ENE 9 15 29.98 1015 10 16 0.00 0.00
2:05 am 02:05 Mostly Cloudy 43 6.1 35 1.7 74 74 NE 7 11 30.06 1018 10 16 0.00 0.00
2:53 am 02:53 Cloudy 44 6.7 36 2.2 73 73 NE 9 15 29.96 1015 10 16 0.00 0.00
3:05 am 03:05 Cloudy 44 6.7 36 2.2 73 73 NE 8 13 30.06 1018 10 16 0.00 0.00
3:53 am 03:53 Cloudy 44 6.7 36 2.2 73 73 NE 9 15 29.96 1015 10 16 0.00 0.00
4:53 am 04:53 Cloudy 44 6.7 37 2.8 76 76 ENE 8 13 29.96 1015 10 16 0.00 0.00
5:53 am 05:53 Cloudy with Mist and Fog 43 6.1 39 3.9 86 86 ENE 8 13 29.96 1015 4 6 0.00 0.00
6:18 am 06:18 Cloudy with Mist and Fog 42 5.6 40 4.4 92 92 E 7 11 30.07 1018 3 4 0.00 0.00
6:33 am 06:33 Cloudy with Mist and Fog 42 5.6 40 4.4 92 92 E 8 13 30.08 1019 3 5 0.00 0.00
6:43 am 06:43 Cloudy with Mist and Fog 42 5.6 40 4.4 92 92 E 8 13 30.07 1018 4 6 0.00 0.00
6:53 am 06:53 Cloudy with Mist and Fog 42 5.6 40 4.4 92 92 ENE 9 15 29.97 1015 4 6 0.00 0.00
7:49 am 07:49 Cloudy 39 4 37 3 93 93 ENE 9 15 30.09 1019 9 14 0.00 0.00
7:53 am 07:53 Cloudy 39 3.9 37 2.8 93 93 ENE 9 15 29.99 1016 8 13 0.00 0.00
8:05 am 08:05 Cloudy 40 4.4 37 2.8 89 89 ENE 7 11 30.09 1019 7 11 0.00 0.00
8:53 am 08:53 Cloudy 39 3.9 36 2.2 89 89 ENE 7 11 30.01 1016 7 11 0.00 0.00
9:53 am 09:53 Cloudy 41 5 36 2.2 82 82 E 8 13 30.01 1016 10 16 0.00 0.00
10:07 am 10:07 Cloudy 41 5 36 2.2 82 82 E 7 11 30.09 1019 10 16 0.00 0.00
10:29 am 10:29 Cloudy 41 5 36 2.2 82 82 E 6 9 30.09 1019 10 16 0.00 0.00
10:53 am 10:53 Cloudy 42 5.6 37 2.8 82 82 E 6 9 30.01 1016 10 16 0.00 0.00
11:53 am 11:53 Cloudy 44 6.7 38 3.3 79 79 VRB 5 7 30.00 1016 10 16 0.00 0.00
12:53 pm 12:53 Cloudy 46 7.8 39 3.9 77 77 VRB 3 6 29.98 1015 10 16 0.00 0.00
1:53 pm 13:53 Cloudy 50 10 41 5 71 71 ESE 8 13 29.93 1013 10 16 0.00 0.00
2:01 pm 14:01 Cloudy 51 10.6 41 5 69 69 SE 9 15 29.95 1014 10 16 0.00 0.00
2:29 pm 14:29 Cloudy 53 11.7 42 5.6 66 66 ESE 9 15 29.90 1013 10 16 0.00 0.00
2:53 pm 14:53 Mostly Sunny 55 12.8 42 5.6 62 62 E 10 17 29.87 1012 10 16 0.00 0.00
3:53 pm 15:53 Sunny 56 13.3 43 6.1 62 62 E 9 15 29.83 1010 10 16 0.00 0.00
4:53 pm 16:53 Sunny 60 15.6 43 6.1 53 53 ESE 12 19 29.80 1009 10 16 0.00 0.00
5:53 pm 17:53 Sunny 60 15.6 43 6.1 53 53 SE 14 22 29.79 1009 10 16 0.00 0.00
6:53 pm 18:53 Sunny 57 13.9 42 5.6 58 58 E 12 19 29.81 1010 10 16 0.00 0.00
7:53 pm 19:53 Clear 51 10.6 41 5 69 69 E 14 22 29.85 1011 10 16 0.00 0.00
8:53 pm 20:53 Partly Cloudy 47 8.3 41 5 80 80 E 13 20 29.88 1012 10 16 0.00 0.00
9:03 pm 21:03 Mostly Cloudy 47 8.3 41 5 80 80 E 15 24 29.91 1013 10 16 0.00 0.00
9:53 pm 21:53 Cloudy 46 7.8 41 5 83 83 ENE 15 24 29.89 1012 9 14 0.00 0.00
10:53 pm 22:53 Cloudy with Mist and Fog 44 6.7 41 5 89 89 ENE 14 22 29.91 1013 3 5 0.00 0.00
11:00 pm 23:00 Cloudy with Mist and Fog 44 6.7 41 5 89 89 E 14 22 29.97 1015 3 4 0.00 0.00
11:13 pm 23:13 Cloudy with Mist and Fog 43 6.1 41 5 93 93 ENE 14 22 29.99 1015 3 4 0.00 0.00
11:44 pm 23:44 Cloudy with Mist and Fog 43 6.1 41 5 93 93 NE 14 22 30.01 1016 2 3 0.00 0.00
11:53 pm 23:53 Cloudy with Mist and Fog 42 5.6 41 5 96 96 NE 14 22 29.94 1014 2 2 0.00 0.00

Powered by AerisWeather